NOAA 16 DEB

Satellite information

Favourite Embed

Satellite Type and Status

DEBRISIN ORBIT

Key statistics

Satellite NOAA 16 DEB at a glance.

Uptime

9216

Days in orbit

Revolutions

≈ 14.3

Per day

Orbit

SSO

Sun Synchronous Orbit

Inclination

98.7

Latest

Satellite identification and parameters

Extended collection of information and parameters for NOAA 16 DEB.

Object identification

Identified? True

Debris? True

Object name: NOAA 16 DEB

International designator: 2000-055LB

Object number (NORAD): 41422

Object ID (CCSDS): 41422

Country: UNITED STATES OF AMERICA (US)

Current information (Y/N): Y

RCS size: SMALL

Orbital parameters

Period: 100.968 minutes

Inclination: 98.7199 deg

SMA: 7182.599 km

Apoapsis: 813.701 km

Periapsis: 795.227 km

RAAN: 61.598 deg

Eccentricy: 0.00128607

Argument of periapsis: 0.7138 deg

Mean anomaly: 359.4058 deg

Mean motion: 14.26199695 rev/day

Mean motion (dot): 0.00004761 rev/day2

B* drag term: 0.0020030805 1/REarth

Two-line elements (TLE)

Creation date: Dec. 14, 2025, 6:24 p.m.

Reference frame: TEME

Reference center: EARTH

Epoch: Dec. 14, 2025, 1:21 a.m. UTC

TLE line 0: 0 NOAA 16 DEB

TLE line 1: 1 41422U 00055LB 25348.05654779 .00004761 00000-0 20031-2 0 9994

TLE line 2: 2 41422 98.7199 61.5980 0012861 0.7138 359.4058 14.26199695507811

Live tracking on map

Real-time ground track for satellite NOAA 16 DEB.

In-orbit conjunctions

A list of the most updated potential collisions computed for object NOAA 16 DEB.

Target Orbit TCA Probability of collision Miss distance Type
COSMOS 2251 DEB LEO 2025-03-08 20:28:47 0.0001046632 293.0 (m) DEBRIS

Associated space launch

The NOAA K, L and M POES satellites begin the fifth generation of improved environmental monitoring in support of NOAA missions. The instrument payload has significant improvements and additions/deletions. The instrument changes have effected the spacecraft subsystems and data formats.

NOAA 16 DEB was lifted into orbit during the mission ‘Titan II SLV | NOAA 16’, on board a Titan II SLV space rocket.

The launch took place on Sept. 21, 2000, 10:22 a.m. from Space Launch Complex 4W.

For more information about the launch, click the button.

Launch to space Titan II SLV | NOAA 16
Titan II SLV | NOAA 16

Agency: N/A

Status: Launch Successful

Launch date: Sept. 21, 2000, 10:22 a.m. UTC

Rocket: Titan II SLV

Launch pad: Space Launch Complex 4W

Location: Vandenberg SFB, CA, USA

...

Latest news about this satellite

There are no fresh news available about this satellite. Check back as we update our databases every day.


Newsletter sign-up

Weekly statistics, charts and insights to help you stay on top of the space industry.